Regional Weather Roundup
Issued by NWS Wakefield, VA

Home | Current Version | Previous Version | Text Only | Print | Product List | Glossary On
Versions: 1 2 3 4 5 6 7 8 9 10 11 12 13 14 15 16 17 18 19 20 21 22 23 24 25 26 27 28 29 30 31 32 33 34 35 36 37 38 39 40 41 42 43 44 45 46 47 48 49 50
000
ASUS41 KAKQ 250215
RWRAKQ

REGIONAL WEATHER ROUNDUP
NATIONAL WEATHER SERVICE WAKEFIELD VA
1000 PM EDT FRI MAR 24 2017

Note: "fair" indicates few or no clouds below 12,000 feet with no
significant weather and/or obstructions to visibility. * = Denotes
station may not report precipitation (e.g., rain,snow,etc.),
thunder or fog.

VAZ042-051-052>054-056-250300-
NORTHERN VIRGINIA

CITY           SKY/WX    TMP DP  RH WIND       PRES   REMARKS
WASH NATIONAL  PTCLDY    56  46  69 S12       30.18R
DULLES         PTCLDY    61  45  55 SW10      30.17R
FORT BELVOIR   CLEAR     60  45  56 S3        30.18R
QUANTICO       CLEAR     65  47  52 SW9G17    30.20R
FREDERICKSBRG* CLEAR     64  49  56 SW14G22   30.19S
STAFFORD*      CLEAR     64  46  53 SW13      30.23S
WARRENTON      CLEAR     63  43  47 SW12G17   30.18S
CULPEPER*      CLEAR     62  47  58 SW9       30.20R
MANASSAS*      CLEAR     63  46  54 SW14      30.19R
LEESBURG*      CLEAR     61  46  59 SW8       30.18R
WINCHESTER     CLEAR     61  41  48 SW7       30.16R
FRONT ROYAL*     N/A    N/A N/A N/A MISG        N/A
LURAY*         CLEAR     63  45  51 SW10G18   30.19R
$$

VAZ048-049-060>072-079>083-250300-
CENTRAL AND SOUTH CENTRAL VIRGINIA

CITY           SKY/WX    TMP DP  RH WIND       PRES   REMARKS
RICHMOND       MOCLDY    61  47  59 SW12      30.26S
CHESTERFIELD*  FAIR     N/A N/A N/A SW7       30.28R
PETERSBURG*    CLEAR     60  46  59 SW3       30.28S
HANOVER        CLEAR     63  45  51 S10       30.26S
TAPPAHANNOCK*  CLEAR     64  33  30 S9        30.24S
QUINTON*       FAIR      63  48  58 SW3       30.26S
CHARLOTTSVILLE CLEAR     64  46  52 SW10      30.22R
GORDONSVILLE*  CLEAR     63  47  57 SW8       30.22R
ORANGE*        CLEAR     61  45  55 S8        30.23S
LOUISA*        CLEAR     66  50  55 SW9       30.21F
BUMPASS*       FAIR      62  47  57 SW12G18   30.23S
FARMVILLE*     CLEAR     62  47  58 SW6       30.27S
CREWE*         FAIR      60  47  62 CALM      30.28S
FORT PICKETT*  FAIR      61  41  49 SW9G18    30.29R
CHASE CITY*    FAIR      59  45  60 CALM      30.31R
CLARKSVILLE*   FAIR      59  46  63 S5        30.31S
SOUTH HILL*    CLEAR     60  48  66 S8        30.36S
LAWRENCEVILLE* FAIR      61  46  59 SW7       30.30S
EMPORIA*       CLEAR     59  45  58 S5        30.32S
$$

VAZ088>098-250300-
SOUTHEAST VIRGINIA

CITY           SKY/WX    TMP DP  RH WIND       PRES   REMARKS
NORFOLK        PTCLDY    62  45  53 SW14      30.28S
VIRGINIA BEACH CLEAR     62  44  51 SW14G22   30.28S
NORFOLK NAVAL  PTCLDY    64  44  48 SW9       30.29F
WEST POINT*    CLEAR     62  45  54 SW6       30.28R
SALUDA*        FAIR      64  48  56 SW7G18    30.24S
NEWPORT NEWS   CLEAR     62  46  55 SW12      30.28S
LANGLEY AFB    CLEAR     63  47  54 SW15      30.27S
FORT EUSTIS    PTCLDY    61  47  59 S5        30.25S
WILLIAMSBURG*  PTCLDY    64  48  55 SW10G17   30.28S
HR EXEC AP*    FAIR      63  45  51 SW8       30.28S
FRANKLIN*      CLEAR     61  46  56 SW7       30.31S
US460-WAKEFLD  CLEAR     62  47  57 S5        30.29S
$$

VAZ020-022-025-037-045-250300-
WEST CENTRAL AND SOUTHWEST VIRGINIA

CITY           SKY/WX    TMP DP  RH WIND       PRES   REMARKS
STAUNTON*      CLEAR     58  43  57 S6        30.25R
WAYNESBORO*    CLEAR     59  46  60 SW6       30.23S
HOT SPRINGS VA CLOUDY    55  37  50 SW13      30.30S
LYNCHBURG      CLEAR     58  45  62 S7        30.30R
DANVILLE       CLEAR     60  48  64 S6        30.31R
SOUTH BOSTON*  FAIR      60  46  59 S5        30.31R
MARTINSVILLE   PTCLDY    53  44  72 CALM      30.34R
ROANOKE        CLOUDY    62  45  53 SW7       30.30R
BLACKSBURG     CLOUDY    58  47  68 CALM      30.34S
DUBLIN*        CLOUDY    60  48  64 S9        30.32S
MARION*        CLOUDY    57  46  66 CALM      30.33R
HILLSVILLE*    CLOUDY    55  47  75 S5        30.33R
RICHLANDS*     FAIR      62  46  54 CALM      30.29R
WISE*          MOCLDY    59  45  58 CALM      30.30S
ABINGDON*      CLOUDY    62  47  58 NW3       30.29R
$$

MDZ021>025-VAZ099-100-250300-
SOUTHERN MARYLAND AND THE DELMARVA PENINSULA

CITY           SKY/WX    TMP DP  RH WIND       PRES   REMARKS
PATUXENT RIVER MOCLDY    63  50  62 SW15      30.20R
BAY BRIDGE APT CLOUDY    55  43  62 S9        30.18S
LEONARDTOWN    PTCLDY    61  45  55 SW8       30.22R
DOVER          CLEAR     56  43  62 S14       30.16F
GEORGETOWN     MOCLDY    53  42  66 S7        30.22R
EASTON         CLEAR     57  43  58 S8        30.23R
CAMBRIDGE      CLEAR     50  45  81 S6        30.21S
SALISBURY      CLOUDY    57  46  66 SW9       30.23R
OCEAN CITY     CLOUDY    52  44  74 SW9       30.24R
WALLOPS ISLAND PTCLDY    48  46  93 S6        30.25R
ACCOMACK*      PTCLDY    64  46  53 SW16G22   30.25S
$$

NCZ012>017-030>032-250300-
NORTH CENTRAL AND EASTERN NORTH CAROLINA

CITY           SKY/WX    TMP DP  RH WIND       PRES   REMARKS
ROANOKE RAPIDS FAIR      54  45  71 S5        30.32F
RALEIGH        PTCLDY    59  45  59 SW5       30.33S
ELIZABETH CITY CLEAR     59  48  67 S15       30.34R
AHOSKIE*         N/A     57  46  65 S5        30.34R
EDENTON*       CLEAR     61  50  67 SW10G16   30.35S
CURRITUCK*     CLEAR     61  47  61 SW10G16   30.33S
KILL DEVIL HLS NOT AVBL
MANTEO         CLEAR     57  49  73 SW14      30.36S
CAPE HATTERAS  CLEAR     59  52  77 SW9       30.38F
TARBORO*       NOT AVBL
GOLDSBORO      CLEAR     61  52  71 S7        30.34R
WASHINGTON     CLEAR     60  49  68 S7        30.36S
GREENVILLE     CLEAR     61  50  67 S9        30.36S
NEW BERN       CLEAR     59  52  77 S9        30.38F
WILMINGTON     CLEAR     57  52  83 S7        30.39S
$$

VAZ048-250300-
ELSEWHERE

CITY           SKY/WX    TMP DP  RH WIND       PRES   REMARKS
HARRISBURG PA  CLOUDY    56  39  53 VRB7      30.13R
BALTIMORE      PTCLDY    53  39  59 CALM      30.16S
ANNAPOLIS      PTCLDY    49  44  83 SE5       30.18S
ANDREWS AFB    CLEAR     62  45  54 SW14      30.17R
PHILADELPHIA   PTCLDY    50  34  54 W6        30.17R
HENDERSON NC   CLEAR     57  44  62 S6        30.32S
GREENSBORO     PTCLDY    59  47  64 SW7       30.32R
ROCKY MOUNT    CLEAR     59  47  64 S7        30.34R
$$

VAZ100-250300-
MARINE

STATION/POSITION TIME  TEMP    WIND        PRES    WAVE   SWELL
                       AIR SEA DIR/SP/G            HT/PER HT/PER
                 (UTC) (F)     (DEG/KT/KT) (MB)    (FT/S) (FT/S)
CAPE MAY NJ      0130   51 43  200/  7/ 10 1022.1R
LEWES DE         0130   58 43  230/ 11/ 18 1022.4R
OCEAN-CITY-INLET 0130   49 43  230/ 14/ 16 1024.1R
WACHAPREAGUE VA  0142   52 51  210/  7/ 10 1024.1S
THOMAS POINT MD  0200   53 44  170/ 16/ 17   N/A
GOOSES REEF MD   0150   54     200/  8/ 10 1022.9R
COVE POINT MD    0130   64     240/ 14/ 19 1023.0R
SOLOMONS ISLAND  0130   61 47  230/ 19/ 24   N/A
BISHOPS HEAD MD  0130   54 48  190/ 12/ 14 1023.3R
PINEY POINT MD   0130          260/  8/ 11   N/A
POTOMAC MD       0150   58     240/ 14/ 16 1022.3R
CAMBRIDGE MD     0130   56 44  170/  3/  5 1022.2R
LEWISETTA VA     0130   63 48  240/ 14/ 18 1022.7R
RAPPAHANNOCK LGT 0130          190/ 17/ 18 1025.0R
STINGRAY PT      0150   56     240/ 10/ 12 1024.2R
YORK RVR RNG VA  0130   61     230/ 18/ 21 1023.9F
YORKTOWN VA      0130   64 48  220/ 11/ 17 1024.3F
JAMESTOWN VA     0150   63     210/  6/ 10   N/A
DOMINION TERM VA 0130   57     210/  6/  7 1025.5F
KIPTOPEKE VA     0130      47  190/  7/  8   N/A
CHES BAY BRIDGE  0130   62 48  230/ 15/ 16 1025.1F
CAPE HENRY VA    0130   64     210/  6/ 12   N/A
WILLOUBY STN VA  0130   63     220/ 16/ 19 1026.0F
S CRANEY ISL VA  0130   64     210/  9/ 13 1025.3F
CAPE HENRY BUOY  0142      47                N/A     3/ 4
CAPE CHARLES BUO 0121      47                N/A     2/ 9
OFFSHORE WE BUOY 0151      46                N/A     3/ 3
64NM E OF VA BCH 0150   54 51  210/ 19/ 21 1026.5S   4/ 4   2/ 9
DUCK PIER NC     0130   59 47  200/ 14/ 19 1026.9R
44100 DUCK FRF   0135      48                N/A     3/10   2/12
44056 DUCK FRF   0130      49                N/A     2/11
OREGON INLET NC  0130   56 54  210/ 12/ 15 1028.2R
HATTERAS NC      0130   60 54  210/  9/ 12 1028.6S
DIAMOND SHLS NC  0150   66 74  210/ 19/ 23 1029.0F   4/10   3/10
CAPE LOOKOUT NC  0100   64     190/ 11/ 14 1029.1F
$$



USA.gov is the U.S. government's official web portal to all federal, state and local government web resources and services.